DW5683 Weather Reports


time (UTC)temp
C
wind
direction
speed
KPH
gust
KPH
rain 1hr
cm
rain 24hr
cm
rain mn
cm
humidity
%
barometer
mb
20260901174541 19 113 3.2 20.9 0.00 0.00 0.00 61 1015.5
20260901173045 20 121 9.7 20.9 0.00 0.00 0.00 58 1015.6
20260901171602 20 122 3.2 19.3 0.00 0.00 0.00 61 1015.5
20260901170048 20 169 3.2 17.7 0.00 0.00 0.00 61 1015.1
20260901164554 18 125 6.4 17.7 0.00 0.00 0.00 64 1015.3
20260901163042 18 128 3.2 19.3 0.00 0.00 0.00 67 1015.3
20260901161542 17 138 3.2 14.5 0.00 0.00 0.00 69 1015.1
20260901160045 17 142 0.0 12.9 0.00 0.00 0.00 71 1014.9
20260901154542 16 141 1.6 8.0 0.00 0.00 0.00 73 1014.8
20260901153055 16 141 1.6 11.3 0.00 0.00 0.00 74 1014.5
20260901151547 15 142 0.0 12.9 0.00 0.00 0.00 75 1014.3
20260901150043 15 142 3.2 12.9 0.00 0.00 0.00 76 1014.3
20260901144541 15 136 1.6 12.9 0.00 0.00 0.00 76 1014.0
20260901143049 15 140 0.0 14.5 0.00 0.00 0.00 77 1013.8
20260901141544 15 121 0.0 9.7 0.00 0.00 0.00 78 1013.4
20260901140042 15 120 1.6 14.5 0.00 0.00 0.00 79 1013.2
20260901134550 15 117 1.6 9.7 0.00 0.00 0.00 80 1013.3
20260901133050 14 117 1.6 9.7 0.00 0.00 0.00 80 1013.2
20260901131543 14 117 3.2 11.3 0.00 0.00 0.00 81 1012.9
20260901130045 14 117 3.2 14.5 0.00 0.00 0.00 81 1012.6
20260901124545 14 119 3.2 11.3 0.00 0.00 0.00 81 1012.8
20260901123044 14 119 3.2 14.5 0.00 0.00 0.00 81 1012.9
20260901121545 14 122 1.6 11.3 0.00 0.00 0.00 81 1013.0
20260901120041 14 125 4.8 20.9 0.00 0.00 0.00 80 1012.7
20260901114557 15 117 4.8 14.5 0.00 0.00 0.00 80 1012.5
20260901113043 15 119 3.2 11.3 0.00 0.00 0.00 80 1012.5
20260901111547 14 119 3.2 9.7 0.00 0.00 0.00 80 1012.4
20260901110044 15 120 3.2 12.9 0.00 0.00 0.00 80 1012.4
20260901104544 15 121 4.8 14.5 0.00 0.00 0.00 80 1012.3
20260901103042 15 123 1.6 11.3 0.00 0.00 0.00 80 1012.3
20260901101544 14 118 3.2 11.3 0.00 0.00 0.00 81 1012.1
20260901100049 14 115 1.6 12.9 0.00 0.00 0.00 80 1012.1
20260901094543 14 116 3.2 12.9 0.00 0.00 0.00 80 1012.2
20260901093043 14 117 3.2 11.3 0.00 0.00 0.00 80 1012.3
20260901091549 14 117 1.6 12.9 0.00 0.00 0.00 80 1012.2
20260901090045 14 117 1.6 12.9 0.00 0.00 0.00 81 1012.4
20260901084540 14 116 3.2 14.5 0.00 0.00 0.00 80 1012.3
20260901083041 14 117 3.2 12.9 0.00 0.00 0.00 80 1012.4
20260901081544 14 112 3.2 14.5 0.00 0.00 0.00 81 1012.4
20260901080049 14 114 1.6 14.5 0.00 0.00 0.00 80 1012.4
20260901074548 14 120 3.2 14.5 0.00 0.00 0.00 80 1012.4
20260901073042 14 0 3.2 9.7 0.00 0.00 0.00 80 1012.4
20260901071548 15 122 1.6 11.3 0.00 0.00 0.00 80 1012.4
20260901070044 15 122 3.2 12.9 0.00 0.00 0.00 80 1012.4
20260901064543 15 126 3.2 12.9 0.00 0.00 0.00 79 1012.5
20260901063044 15 126 1.6 12.9 0.00 0.00 0.00 79 1012.4
20260901061549 15 0 3.2 8.0 0.00 0.00 0.00 79 1012.1
20260901060043 15 133 1.6 11.3 0.00 0.00 0.00 78 1012.3
20260901054546 15 134 3.2 11.3 0.00 0.00 0.00 78 1012.2
20260901053051 15 133 3.2 12.9 0.00 0.00 0.00 77 1012.1
20260901051541 16 138 1.6 11.3 0.00 0.00 0.00 76 1012.0
20260901050040 16 0 3.2 11.3 0.00 0.00 0.00 75 1012.1
20260901044541 16 148 3.2 16.1 0.00 0.00 0.00 74 1012.0
20260901043044 16 155 1.6 12.9 0.00 0.00 0.00 74 1011.8
20260901041549 17 0 1.6 14.5 0.00 0.00 0.00 73 1011.8
20260901040109 17 165 3.2 16.1 0.00 0.00 0.00 71 1011.6
20260901034542 17 184 0.0 6.4 0.00 0.00 0.00 69 1011.4
20260901033053 18 184 0.0 6.4 0.00 0.00 0.00 67 1011.1
20260901031542 18 0 0.0 8.0 0.00 0.00 0.00 65 1010.8
20260901030042 19 184 3.2 9.7 0.00 0.00 0.00 63 1010.7
20260901024548 20 184 4.8 12.9 0.00 0.00 0.00 61 1010.5
20260901023044 21 185 1.6 12.9 0.00 0.00 0.00 59 1010.4
20260901021545 21 185 6.4 17.7 0.00 0.00 0.00 56 1010.2
20260901020051 22 184 4.8 16.1 0.00 0.00 0.00 53 1010.1
20260901014546 23 182 4.8 16.1 0.00 0.00 0.00 49 1009.9
20260901013103 24 182 1.6 17.7 0.00 0.00 0.00 48 1009.9
20260901011549 25 182 1.6 16.1 0.00 0.00 0.00 48 1009.9
20260901010045 25 183 6.4 14.5 0.00 0.00 0.00 48 1009.8
20260901004554 25 183 6.4 17.7 0.00 0.00 0.00 47 1009.9
20260901003045 26 182 3.2 14.5 0.00 0.00 0.00 47 1010.0
20260901001541 26 183 6.4 16.1 0.00 0.00 0.00 46 1009.9
20260901000039 26 184 1.6 14.5 0.00 0.00 0.00 45 1009.9
20260831234552 27 184 4.8 17.7 0.00 0.00 0.00 43 1010.0
20260831233041 27 183 3.2 16.1 0.00 0.00 0.00 42 1010.1
20260831231548 27 182 1.6 12.9 0.00 0.00 0.00 41 1010.3
20260831230046 27 182 3.2 12.9 0.00 0.00 0.00 42 1010.5
20260831224541 27 0 3.2 9.7 0.00 0.00 0.00 43 1010.6
20260831223049 27 0 1.6 14.5 0.00 0.00 0.00 42 1010.7
20260831221555 27 0 3.2 14.5 0.00 0.00 0.00 43 1010.8
20260831220053 26 0 4.8 16.1 0.00 0.00 0.00 44 1010.9
20260831214549 26 178 6.4 17.7 0.00 0.00 0.00 44 1011.0
20260831213046 26 173 6.4 16.1 0.00 0.00 0.00 44 1011.2
20260831211542 26 169 4.8 14.5 0.00 0.00 0.00 45 1011.3
20260831210051 26 171 4.8 17.7 0.00 0.00 0.00 45 1011.5
20260831204546 25 171 1.6 12.9 0.00 0.00 0.00 47 1011.6
20260831203103 25 0 1.6 12.9 0.00 0.00 0.00 47 1011.6
20260831201601 26 175 3.2 14.5 0.00 0.00 0.00 45 1011.8
20260831200134 25 0 8.0 22.5 0.00 0.00 0.00 47 1011.8
20260831194546 25 168 9.7 22.5 0.00 0.00 0.00 46 1012.1
20260831193042 25 162 6.4 19.3 0.00 0.00 0.00 46 1012.0
20260831191549 25 0 8.0 22.5 0.00 0.00 0.00 49 1012.1
20260831190048 25 171 3.2 20.9 0.00 0.00 0.00 48 1012.1
20260831184618 25 169 4.8 17.7 0.00 0.00 0.00 48 1012.1
20260831184547 25 169 4.8 17.7 0.00 0.00 0.00 48 1012.1
20260831183041 25 169 6.4 24.1 0.00 0.00 0.00 50 1012.0
20260831181552 23 166 6.4 16.1 0.00 0.00 0.00 52 1012.0
20260831180045 23 174 3.2 14.5 0.00 0.00 0.00 50 1012.1